Regional Weather Roundup
Issued by NWS

Home | Current Version | Previous Version | Graphics & Text | Print | Product List | Glossary On
Versions: 1 2 3 4 5 6 7 8 9 10 11 12 13 14 15 16 17 18 19 20 21 22 23 24 25 26 27 28 29 30 31 32 33 34 35 36 37 38 39 40 41 42 43 44 45 46 47 48 49 50
000
ASUS43 KFSD 291310
RWRSD

WEATHER ROUNDUP FOR SOUTH DAKOTA
NATIONAL WEATHER SERVICE SIOUX FALLS SD
800 AM CDT THU SEP 29 2016

NOTE: "FAIR" INDICATES FEW OR NO CLOUDS BELOW 12,000 FEET WITH NO
SIGNIFICANT WEATHER AND/OR OBSTRUCTIONS TO VISIBILITY.


SDZ001>005-009-010-012>017-291400-
NORTHWEST AND NORTH CENTRAL SOUTH DAKOTA

CITY           SKY/WX    TMP DP  RH WIND       PRES   REMARKS
BUFFALO          N/A     46  41  82 S8        30.23S
FAITH            N/A     44  42  93 SE13      30.33S
MOBRIDGE       CLEAR     46  41  82 SE10      30.38R
$$

SDZ012>016-024>037-041>051-057-063-072>074-291400-
SOUTHWEST AND SOUTH CENTRAL SOUTH DAKOTA

CITY           SKY/WX    TMP DP  RH WIND       PRES   REMARKS
RAPID CTY ARPT CLEAR     39  33  79 SE8       30.31S
PIERRE         CLEAR     41  40  96 CALM      30.39S
CUSTER         CLEAR     43  35  73 NW5       30.38S
ELLSWORTH AFB  CLEAR     47  34  61 S8        30.29F
PHILIP         CLOUDY    39  38  96 E7        30.35S
PINE RIDGE     CLEAR     51  39  63 S8        30.33F
WINNER         FAIR      44  40  85 S7        30.42S
$$

SDZ004>011-016>023-039-040-291400-
NORTHEAST SOUTH DAKOTA

CITY           SKY/WX    TMP DP  RH WIND       PRES   REMARKS
ABERDEEN       FOG       35  33  92 CALM      30.46R VSB 1/2
WATERTOWN      CLOUDY    38  36  92 CALM      30.46R
BROOKINGS      FOG       37  37 100 CALM      30.46R VSB 1/2
SISSETON         N/A     36  34  92 CALM      30.47R
$$

SDZ017-020-022-023-036>040-048>070-291400-
SOUTHEAST SOUTH DAKOTA

CITY           SKY/WX    TMP DP  RH WIND       PRES   REMARKS
SIOUX FALLS    CLOUDY    41  40  96 CALM      30.46R
HURON          CLOUDY    38  38 100 SE3       30.45R
CHAMBERLAIN    CLOUDY    42  42 100 SE5       30.44R
MITCHELL       FOG       37  37 100 CALM      30.47R VSB 1/2
YANKTON        CLOUDY    41  39  93 CALM      30.44R
$$

ABBREVIATIONS USED IN REMARKS
   TC - TEMPERATURE IN CELSIUS
  WCI - WIND CHILL INDEX
   HX - HEAT INDEX
  VSB - VISIBILITY




USA.gov is the U.S. government's official web portal to all federal, state and local government web resources and services.